Home   Weather   Santa Ana   Past weeks

Flag for El Salvador Past Weather in Santa Ana, El Salvador — Yesterday and Last 2 Weeks

Now
79 °F

Clear.


Feels Like: 82 °F
Forecast: 65 / 91 °F
Wind: 5 mph from Southwest

Location: San Salvador / Ilopango

Current Time: Jul 26, 2017 at 10:52:01 pm

Latest Report: Jul 26, 2017 at 9:50 pm


Visibility: 10 mi

Pressure: 30.01 "Hg (27.86 "Hg at 650m altitude)

Humidity: 89%

Dew Point: 75 °F

Location of Santa AnaLocation

Past Weather in Santa Ana — Graph

°F

Santa Ana Temperature Yesterday

Maximum temperature yesterday: 90 °F (at 12:50 pm)
Minimum temperature yesterday: 70 °F (at 5:50 am)
Average temperature yesterday: 80 °F

High & Low Weather Summary for the Past Weeks

 TemperatureHumidityPressure
High90 °F (Jul 25, 12:50 pm)100% (Jul 11, 11:50 pm)30.09 "Hg (Jul 11, 11:50 pm)
Low68 °F (Jul 12, 5:50 am)49% (Jul 19, 1:50 pm)29.83 "Hg (Jul 24, 6:50 am)
Average78 °F80%30.01 "Hg
* Reported Jul 11 9:50 pm — Jul 26 9:50 pm, Santa Ana. Weather by CustomWeather, © 2017

Note: Actual official high and low records may vary slightly from our data, if they occured in-between our weather recording intervals... More about our weather records

Advertising

Santa Ana Weather History for the Previous 24 Hours

Scroll right to see more
 ConditionsComfort  
Time TempWeatherWind HumidityBarometerVisibility
9:50 pm
Wed, Jul 26
79 °FClear.5 mph89%30.01 "Hg10 mi
8:50 pm79 °FClear.No wind94%30.01 "Hg10 mi
7:50 pm79 °FClear.No wind84%29.98 "Hg10 mi
6:50 pm86 °FPassing clouds.2 mph75%29.98 "HgN/A
5:50 pm86 °FPassing clouds.2 mph55%29.98 "HgN/A
4:50 pm88 °FPassing clouds.5 mph52%29.98 "HgN/A
2:50 pm90 °FScattered clouds.8 mph49%29.98 "HgN/A
1:50 pm86 °FScattered clouds.3 mph55%29.98 "HgN/A
12:50 pm88 °FPassing clouds.7 mph52%29.98 "HgN/A
11:50 am86 °FPassing clouds.3 mph59%29.98 "HgN/A
10:50 am84 °FPassing clouds.7 mph66%29.98 "HgN/A
9:50 am82 °FSunny.10 mph70%30.01 "Hg10 mi
8:50 am79 °FSunny.10 mph79%30.01 "Hg10 mi
7:50 am77 °FSunny.10 mph83%30.01 "Hg10 mi
6:50 am72 °FSunny.8 mph100%30.01 "Hg10 mi
5:50 am70 °FSunny.5 mph100%29.98 "Hg10 mi
11:50 pm
Tue, Jul 25
73 °FPassing clouds.7 mph94%30.04 "HgN/A
10:50 pm73 °FThunderstorms. Passing clouds.6 mph94%30.04 "Hg4 mi
Weather by CustomWeather, © 2017

See weather overviewHow to use our weather pages